Home > Weather > Bielsko-Biała > Past weeks

Flag for Poland Past Weather in Bielsko-Biała, Poland — Yesterday and Last 2 Weeks

Now
74 °F

Overcast.


Feels Like: 75 °F
Forecast: 61 / 82 °F
Wind: 1 mph from West

Location: Katowice

Current Time: Jul 26, 2016 at 12:29:52 PM

Latest Report: Jul 26, 2016 at 11:00 AM


Visibility: 6 mi

Pressure: 30.04 "Hg

Humidity: 75%

Dew Point: 65 °F

Location of Bielsko-BiałaLocation

Past Weather in Bielsko-Biała — Graph

°F

Bielsko-Biała Temperature Yesterday

Maximum temperature yesterday: 79 °F (at 1:00 PM)
Minimum temperature yesterday: 64 °F (at 11:00 PM)
Average temperature yesterday: 70 °F

High & Low Weather Summary for the Past Weeks

 TemperatureHumidityPressure
High88 °F (Jul 11, 6:00 PM)96% (Jul 20, 5:00 AM)30.22 "Hg (Jul 20, 5:00 AM)
Low49 °F (Jul 21, 4:00 AM)33% (Jul 21, 4:00 PM)29.60 "Hg (Jul 14, 10:00 AM)
Average66 °F75%30.01 "Hg
* Reported Jul 11 11:00 AM — Jul 26 11:00 AM, Bielsko-Biała, Weather by CustomWeather, © 2016

Note: Actual official high and low records may vary slightly from our data, if they occured in-between our weather recording intervals... More about our weather records

Advertising

Bielsko-Biała Weather History for the Previous 24 Hours

Scroll right to see more
 ConditionsComfort  
Time TempWeatherWind HumidityBarometerVisibility
11:00 AM
Tue, Jul 26
74 °FOvercast.1 mph75%30.04 "Hg6 mi
10:00 AM71 °FOvercast.1 mph79%30.04 "Hg6 mi
9:00 AM71 °FOvercast.1 mph80%30.04 "Hg6 mi
8:00 AM69 °FOvercast.1 mph83%30.03 "Hg6 mi
7:00 AM67 °FOvercast.No wind94%30.03 "Hg6 mi
6:00 AM64 °FOvercast.1 mph94%30.04 "Hg6 mi
5:00 AM64 °FFog.1 mph94%30.03 "Hg5 mi
4:00 AM64 °FFog.No wind94%30.03 "Hg5 mi
3:00 AM63 °FFog.No wind95%30.03 "Hg5 mi
2:00 AM63 °FOvercast.1 mph95%30.03 "Hg6 mi
1:00 AM62 °FOvercast.1 mph94%30.04 "Hg6 mi
12:00 AM62 °FPassing clouds.1 mph94%30.04 "Hg6 mi
11:00 PM
Mon, Jul 25
64 °FPassing clouds.1 mph93%30.04 "Hg9 mi
10:00 PM65 °FPassing clouds.No wind91%30.03 "Hg9 mi
9:00 PM67 °FPassing clouds.1 mph86%30.02 "Hg12 mi
8:00 PM71 °FPartly sunny.No wind76%30.01 "Hg19 mi
7:00 PM72 °FOvercast.1 mph75%30.01 "Hg19 mi
6:00 PM73 °FOvercast.2 mph71%30.00 "Hg19 mi
5:00 PM74 °FOvercast.3 mph69%30.01 "Hg19 mi
4:00 PM75 °FOvercast.3 mph67%30.00 "Hg19 mi
3:00 PM72 °FOvercast.2 mph73%30.01 "Hg19 mi
2:00 PM70 °FOvercast.3 mph76%30.03 "Hg19 mi
1:00 PM79 °FPartly sunny.2 mph62%29.99 "Hg6 mi
12:00 PM78 °FPartly sunny.2 mph64%30.01 "Hg6 mi
Weather by CustomWeather, © 2016

See weather overviewHow to use our weather pages